{"data":{"norad_id":67501,"epoch":"2026-09-19T13:41:48.294240Z","epoch_age_seconds":152544,"freshness":"FRESH","line1":"1 67501U 26012J   26262.57069785  .00013697  00000+0  50614-3 0  9999","line2":"2 67501  43.0021 299.4493 0001716 263.9876  96.0780 15.27591883 37411","mean_motion":15.27591883,"eccentricity":0.0001716,"inclination_deg":43.0021,"raan_deg":299.4493,"arg_perigee_deg":263.9876,"mean_anomaly_deg":96.078,"bstar":0.00050614,"rev_number":3741,"period_min":94.266015421084,"perigee_km":481.83614086517,"apogee_km":484.19088772168,"semimajor_km":6861.1505142934,"source":"CELESTRAK","updated_at":"2026-09-20T09:00:43.558071Z"}}